OKEAN-0
1 25860U 99039A 11229.94412143 .00000097 00000-0 22275-4 0 04155
2 25860 097.8889 194.7111 0001492 100.0994 260.0381 14.73816155649757
NOAA-16
1 26536U 00055A 11229.83980417 .00000075 00000-0 65554-4 0 04038
2 26536 099.1360 261.6245 0010086 216.0196 144.0259 14.12638447562062
NOAA-17
1 27453U 02032A 11229.71558948 .00000233 00000-0 11881-3 0 03905
2 27453 098.3739 266.5888 0011246 333.7664 026.2957 14.24302611475417
NOAA-18
1 28654U 05018A 11229.77101741 .00000412 00000-0 25182-3 0 08696
2 28654 099.0002 181.0840 0013631 293.6844 066.2900 14.11504243321610
NOAA-19
1 33591U 09005A 11229.78192099 .00000169 00000-0 11789-3 0 00609
2 33591 098.8284 168.9069 0014000 158.2323 201.9523 14.11194044130072
HUBBLE
1 20580U 90037B 11228.54174769 .00000669 00000-0 37863-4 0 8183
2 20580 028.4721 342.1720 0003387 048.1642 311.9135 15.01456292968737
ISS
1 25544U 98067A 11230.85663396 .00009123 00000-0 11465-3 0 9134
2 25544 051.6381 205.3228 0013017 091.4932 351.4033 15.60429688730691
CO-58
1 28895U 05043F 11229.67184915 .00000099 00000-0 29858-4 0 09523
2 28895 097.9563 103.6567 0018604 031.3359 328.8959 14.60148478309216
FALCON
1 30776U 07006E 11229.68264524 .00001192 00000-0 85636-4 0 1513
2 30776 035.4349 333.0029 0001840 288.8791 071.1726 15.04833451244311
MAST
1 31126U 07012K 11230.66861917 .00000126 00000-0 38786-4 0 2374
2 31126 097.8932 254.3576 0094201 336.9890 022.7105 14.53786447230167
CAPE1
1 31130U 07012P 11229.61068241 .00000150 00000-0 44899-4 0 02527
2 31130 097.8957 250.0363 0102181 351.3200 008.6227 14.52441092229551
COMPASS
1 32787U 08021E 11229.63127848 .00000895 00000-0 11778-3 0 00699
2 32787 097.8423 292.2919 0015362 340.1555 019.9009 14.82543068178663
AAUSAT2
1 32788U 08021F 11230.66684134 .00000569 00000-0 76931-4 0 580
2 32788 097.8420 293.5514 0014699 337.4626 022.5956 14.82735668178835
DO-64
1 32789U 08021G 11229.91302591 .00000888 00000-0 11493-3 0 00755
2 32789 097.8529 293.9384 0014782 337.6535 022.4012 14.83270551178736
CO-66
1 32791U 08021J 11230.80880714 .00000683 00000-0 92066-4 0 621
2 32791 097.8428 293.3668 0015532 336.0488 023.9985 14.82215693178785
RS-30
1 32953U 08025A 11230.68727641 .00000010 00000-0 00000 0 0 64
2 32953 082.5050 123.8788 0017693 251.5350 108.3808 12.43014418146858
TACSAT-3
1 35001U 09028A 11230.81534807 .00014104 00000-0 24035-3 0 6715
2 35001 040.4534 151.9102 0022527 316.0200 043.8827 15.50733619126809
PHARMSAT
1 35002U 09028B 11229.96789205 .00010371 00000-0 18254-3 0 06262
2 35002 040.4691 155.2346 0024304 317.6438 042.2519 15.49986436126699
HAWKSAT1
1 35003U 09028C 11229.92207572 .00100234 00000-0 64699-3 0 07275
2 35003 040.4485 114.7752 0017999 327.5695 032.4106 15.74765462127134
CP6
1 35004U 09028D 11230.84058257 .00332918 48388-4 89932-3 0 7350
2 35004 040.4479 093.7447 0016327 319.6094 040.3527 15.93182378127432
METEOR-M
1 35865U 09049A 11230.71134903 .00000176 00000-0 10000-3 0 6483
2 35865 098.7019 285.0135 0002160 189.6792 170.4344 14.21841232 99478
RS-38
1 35869U 09049E 11230.21113401 .00000177 00000-0 10000-3 0 6337
2 35869 098.6970 284.5512 0004319 202.5903 157.5074 14.22018850 99410
ARISSAT1
1 37772U 98067CK 11230.78515973 .00024582 00000-0 28929-3 0 454
2 37772 051.6391 205.6265 0013359 095.0809 332.3458 15.61165345 2266
